Terminal Aerodrome Forecast
Issued by NWS Huntsville, AL

Home | Current Version | Previous Version | Text Only | Print | Product List | Glossary On
Versions: 1 2 3 4 5 6 7 8 9 10 11 12 13 14 15 16 17 18 19 20 21 22 23 24 25 26 27 28 29
000
FTUS44 KHUN 211720
TAFMSL
TAF
KMSL 211720Z 2118/2218 27010G15KT P6SM SCT040
     FM212000 30008G13KT P6SM VCSH SCT035 BKN090
     FM220100 35005KT P6SM SCT050 SCT250
     FM221400 02010KT P6SM SKC=

USA.gov is the U.S. government's official web portal to all federal, state and local government web resources and services.